Theta_e
312 312 311 311 311 310 310 309 309 309 309 309 309 309 309 308 308 308 308 307 307 306 306 306 305 304 305 305 305 305 305 305 305 305 305 305 305 305 305 305 305 305
312 312 311 311 310 310 310 309 309 308 309 309 309 308 308 308 308 308 308 307 307 307 306 306 306 305 305 305 305 305 305 305 305 305 305 305 305 305 305 305 305 305
312 312 312 312 311 310 310 309 309 309 308 308 308 308 308 308 308 308 307 307 307 307 306 306 306 306 305 305 305 305 305 305 305 305 304 304 304 305 305 305 305 305
311 312 312 312 311 310 309 309 309 309 309 309 308 308 308 308 307 307 307 307 307 307 307 307 306 306 306 306 305 305 305 305 305 305 305 305 304 304 304 304 304 304
311 311 311 311 311 310 310 309 309 309 309 309 308 308 308 308 307 307 307 307 307 307 307 307 307 307 306 306 306 306 305 305 305 305 305 305 305 305 304 304 304 304
310 310 311 311 310 310 310 309 309 309 309 308 308 308 308 307 307 307 307 307 307 307 307 307 307 307 307 307 307 306 306 306 305 305 306 306 306 306 305 305 305 304
308 309 310 310 310 310 310 310 309 309 309 309 308 308 308 307 307 307 307 307 307 307 307 307 307 307 307 307 307 307 306 306 306 306 306 306 306 306 306 306 305 305
306 307 309 310 310 310 310 310 310 309 309 308 308 308 308 307 307 307 307 307 307 307 307 307 307 307 307 307 307 307 306 306 306 306 306 306 306 306 306 306 306 306
306 306 307 308 309 310 310 310 310 310 309 308 308 308 308 307 307 307 307 307 307 307 307 307 307 307 307 307 307 307 307 307 307 306 306 306 306 306 306 306 306 306
305 306 306 307 308 309 310 310 310 309 309 308 308 308 307 307 307 307 307 307 307 307 307 307 307 307 307 307 307 307 307 307 307 307 306 306 306 306 306 306 306 306
305 305 305 306 307 308 309 309 309 309 309 308 308 307 307 307 307 307 307 307 307 307 307 307 307 307 307 307 307 308 308 308 308 307 307 307 306 306 306 306 306 306
305 305 305 305 306 307 308 309 309 309 308 308 308 308 307 307 307 307 307 306 307 306 306 306 306 307 307 307 308 308 308 308 308 308 307 307 307 307 307 306 306 306
305 305 305 305 305 306 307 308 308 308 308 308 308 308 307 307 307 307 307 307 306 306 306 306 306 306 307 307 308 308 308 308 308 308 307 307 307 307 307 307 307 307
305 305 305 305 305 305 306 307 307 308 308 308 308 308 308 308 308 308 308 307 307 306 306 306 306 306 306 307 307 307 307 307 308 307 307 307 307 307 307 307 307 307
305 304 305 304 305 305 305 306 306 307 307 307 308 308 308 308 308 308 308 307 307 307 306 306 306 306 306 306 306 306 306 306 307 307 307 307 307 307 307 307 307 307
305 304 304 304 305 305 305 305 306 306 306 307 307 307 307 307 307 307 307 307 307 306 306 306 306 306 306 306 306 306 306 306 307 307 307 307 307 307 307 307 307 307
305 304 304 305 305 305 305 305 305 306 306 306 306 306 306 306 306 306 306 305 305 305 305 305 305 305 305 306 306 306 306 306 307 307 307 307 307 307 307 307 307 307
304 304 304 304 305 305 305 305 305 305 305 306 305 305 305 305 305 305 305 305 305 305 305 305 305 305 305 305 306 306 306 306 306 306 307 307 307 306 307 306 306 306
304 304 304 304 304 305 305 305 305 305 305 304 305 305 305 305 305 305 305 305 305 305 305 305 305 305 305 306 306 306 306 306 306 306 306 306 306 306 306 306 306 306
304 304 304 304 304 304 304 304 304 304 304 304 305 305 305 305 305 305 304 304 304 305 305 305 305 306 306 306 306 306 306 306 306 306 306 306 306 306 306 306 306 305
303 303 303 304 304 304 304 304 304 304 304 305 305 305 304 304 304 304 304 305 305 305 305 305 305 306 306 306 306 306 306 306 306 306 306 305 305 305 305 305 304 304
303 303 303 303 303 303 304 304 304 304 304 304 304 304 304 304 304 304 304 305 305 305 305 305 305 305 306 306 306 306 306 305 305 304 304 304 303 303 303 303 302 302
303 303 303 303 303 303 304 304 304 304 303 303 303 303 304 304 304 304 304 304 305 305 305 305 305 305 304 304 304 304 304 303 303 303 302 302 302 302 301 301 301 301
302 302 303 303 303 304 304 304 303 303 303 303 303 303 303 303 303 304 304 304 304 304 304 304 304 304 304 303 303 303 302 302 302 302 302 301 301 301 301 301 301 301
302 302 303 303 304 304 303 303 303 303 303 303 303 303 303 303 303 304 303 304 304 304 304 304 303 303 303 303 303 302 302 302 301 301 301 301 301 301 301 301 301 301
302 302 303 303 303 303 303 303 303 302 302 302 302 302 302 303 303 303 303 303 303 303 303 303 303 302 302 302 301 301 301 301 301 301 301 301 301 301 301 301 301 301
Wind_Speed
14 15 16 17 18 18 18 18 18 18 18 18 18 18 18 19 20 22 24 26 28 30 30 30 30 29 28 28 28 27 26 26 25 24 24 24 22 22 22 21 22 22
13 14 15 16 16 16 17 17 17 17 17 17 17 17 17 18 19 20 22 24 26 28 29 29 29 29 28 28 28 27 27 27 26 26 25 25 24 23 22 21 21 22
14 14 15 15 15 15 15 15 16 16 16 16 16 17 18 18 19 19 20 22 24 25 27 28 28 28 28 28 27 27 27 27 27 26 26 25 24 24 23 22 22 22
15 15 15 15 15 15 15 16 16 16 17 17 17 18 19 19 20 20 20 21 22 23 24 25 26 26 27 27 27 27 27 27 26 26 27 26 25 25 24 23 23 23
17 17 17 16 16 17 17 18 17 17 17 17 18 19 20 20 21 21 21 21 21 22 23 23 24 24 25 26 26 27 27 26 26 26 27 27 26 25 25 24 24 24
19 19 19 19 19 19 20 20 19 19 18 18 19 20 20 21 21 21 21 21 21 21 22 22 23 23 24 25 25 26 26 26 26 26 27 27 26 26 25 25 25 25
21 21 21 21 20 20 21 21 21 21 20 19 20 20 21 21 21 21 21 21 21 22 22 22 22 22 23 23 24 25 25 25 25 26 27 26 25 26 26 27 27 26
22 22 22 22 22 22 22 22 22 22 21 21 21 21 21 22 21 21 21 21 22 22 22 22 22 22 22 23 23 24 24 24 24 25 26 26 26 26 26 27 27 28
22 23 23 23 23 23 22 22 22 22 22 23 22 21 22 22 21 21 21 21 21 21 22 22 22 22 22 23 23 23 23 23 24 24 25 26 26 26 25 26 27 28
23 23 24 25 24 24 23 22 22 22 23 23 23 22 22 22 21 21 21 21 21 22 22 22 22 23 23 24 24 23 23 23 23 24 25 25 25 24 24 24 26 27
23 24 25 26 25 24 23 22 22 22 22 22 23 23 22 22 22 22 22 23 23 23 23 23 23 23 24 24 24 23 23 23 23 24 24 24 24 23 23 23 24 25
25 25 25 25 25 24 23 22 22 22 21 21 22 22 22 23 23 23 23 23 23 23 23 23 23 23 24 24 24 23 23 23 23 23 24 24 24 23 22 22 23 23
25 25 24 23 24 24 24 23 22 22 21 21 21 21 22 22 22 22 22 22 22 23 23 23 23 24 24 24 24 23 23 23 23 23 23 24 23 23 22 22 22 22
25 23 22 22 22 24 26 25 24 23 21 21 21 20 20 20 20 20 21 22 23 23 24 24 24 24 24 24 24 24 24 24 23 23 23 23 23 23 22 22 22 21
24 23 22 21 22 24 26 27 25 24 23 22 21 21 20 21 21 22 22 23 23 23 23 23 23 23 23 23 23 23 24 24 24 23 23 23 23 23 23 22 22 22
24 23 22 22 23 24 26 27 27 26 25 24 24 23 23 23 23 23 23 22 22 21 21 21 21 21 21 21 22 22 23 23 23 23 23 23 23 23 23 22 22 22
25 24 24 23 24 24 26 27 27 27 27 26 26 25 24 23 22 21 20 20 19 19 19 19 19 19 19 20 21 21 22 23 23 23 23 23 23 22 22 22 21 21
26 26 25 25 25 26 27 27 28 28 27 26 25 24 22 21 20 19 19 18 18 18 17 18 18 19 19 20 20 20 21 21 22 22 22 22 22 22 21 21 21 21
27 27 26 26 26 27 27 28 27 27 25 24 23 22 22 21 20 19 18 18 18 17 17 17 17 17 18 18 19 19 19 20 20 20 20 20 20 20 20 20 20 20
28 28 27 27 27 27 28 27 26 26 25 24 24 23 22 21 20 20 19 18 18 18 17 17 16 15 15 15 16 16 17 17 17 18 18 18 18 18 18 18 18 18
28 27 27 27 27 28 28 27 27 27 26 26 25 24 23 22 21 21 20 20 19 19 18 17 16 16 15 15 15 16 16 16 16 16 17 17 17 17 16 16 16 16
27 27 27 27 27 27 27 27 27 27 27 27 26 25 24 23 23 22 21 21 20 20 19 18 18 17 17 17 17 17 17 17 17 17 17 17 17 17 17 17 17 17
28 28 27 27 28 28 27 27 27 26 26 26 25 25 24 24 23 23 22 22 22 21 21 21 20 20 20 20 19 19 19 19 19 19 19 19 19 19 19 20 20 20
28 28 28 28 29 29 28 27 26 26 25 24 24 24 24 24 24 24 24 24 23 23 23 22 22 22 22 21 21 21 21 21 21 20 20 20 20 21 21 21 21 21
28 28 28 29 30 29 28 27 27 26 26 25 25 25 25 25 25 24 24 24 23 23 22 22 21 21 21 20 20 20 20 20 20 20 20 20 21 21 21 21 21 21
27 27 28 29 29 29 29 28 27 27 26 25 25 24 24 23 23 22 22 22 22 21 21 20 20 20 19 19 19 18 18 18 18 18 19 19 20 20 20 21 21 21
Wind_Direction
247 247 248 248 248 249 248 247 246 244 240 235 232 228 225 223 222 221 221 219 220 220 222 224 225 226 227 228 230 232 232 233 235 237 240 241 242 243 244 244 246 247
244 244 245 246 247 247 247 245 243 241 237 233 228 224 220 219 218 219 219 219 220 221 222 225 227 228 229 230 232 233 234 234 235 237 240 241 242 243 243 244 246 248
247 247 246 247 248 248 248 245 242 239 233 227 221 217 215 215 216 215 215 217 218 220 222 225 228 229 231 232 234 235 236 237 237 240 242 243 244 245 245 245 246 248
250 251 250 250 248 246 243 241 238 234 229 223 216 212 212 212 212 212 212 213 214 216 220 223 227 229 232 233 235 237 238 239 239 241 244 245 245 247 247 247 247 248
252 251 250 249 246 242 239 237 235 231 227 221 214 211 210 210 210 210 210 210 211 213 216 220 223 226 230 232 235 237 238 239 240 241 244 245 245 247 248 249 249 249
253 251 250 248 245 241 238 234 232 229 225 219 215 212 210 210 209 208 208 208 209 211 214 217 220 223 226 229 232 235 236 237 238 240 243 245 245 247 248 249 250 250
254 251 249 248 246 243 240 236 232 228 224 219 217 214 212 211 210 208 208 208 208 210 212 214 218 220 223 227 230 232 233 234 235 238 241 243 243 245 246 247 248 249
253 249 247 246 245 243 241 238 235 231 227 223 220 216 215 215 213 211 210 210 210 211 212 214 217 219 222 225 228 230 231 232 233 235 238 240 241 242 243 244 246 247
255 250 246 244 243 243 242 239 237 234 230 227 223 219 219 218 216 215 214 214 214 214 214 216 217 219 221 224 227 229 230 231 232 233 236 237 238 240 241 243 245 245
259 254 249 246 244 242 242 240 237 235 232 228 225 221 220 219 218 217 217 217 217 217 217 217 218 219 221 223 226 227 229 229 230 231 233 235 237 238 240 242 244 245
264 258 253 249 245 243 241 240 237 234 231 228 225 222 220 218 217 216 216 217 217 218 218 218 219 219 221 223 225 226 228 229 230 231 233 235 236 238 239 241 243 245
267 262 257 252 247 244 241 240 238 234 230 226 223 221 219 217 217 216 217 218 219 219 220 221 222 222 224 225 226 227 229 230 231 232 233 234 236 237 238 240 241 243
270 264 260 255 249 244 240 238 237 233 228 224 221 220 218 218 218 219 220 221 222 223 224 224 225 226 227 227 228 229 229 230 231 231 232 234 235 236 237 238 239 241
273 263 257 252 245 240 237 235 234 232 228 223 221 220 219 218 219 221 222 223 224 225 226 227 228 229 230 231 231 232 232 232 232 232 233 234 235 236 237 238 239 240
271 258 251 245 238 234 233 233 232 231 228 225 223 222 221 221 222 223 225 227 228 230 231 233 234 234 234 234 234 235 234 234 233 232 233 233 234 236 237 238 239 240
264 251 245 239 233 230 229 230 230 228 227 226 224 224 223 224 225 226 228 230 231 233 234 235 237 236 236 234 233 233 232 232 232 232 232 233 234 235 237 238 239 240
256 246 240 234 229 227 226 226 226 225 225 224 224 225 225 225 225 225 225 226 228 230 232 234 236 237 237 235 233 232 231 230 231 232 232 234 235 236 238 240 241 243
250 240 236 230 226 225 223 223 223 223 223 223 223 223 221 219 218 216 217 219 221 225 228 230 233 235 235 234 232 231 230 230 231 233 234 236 238 240 241 243 244 245
245 237 232 227 224 223 222 221 221 220 220 219 217 214 211 210 210 210 212 214 216 219 222 224 227 229 230 229 228 227 227 228 230 232 235 237 239 241 242 243 244 246
242 235 230 225 223 221 219 217 215 214 212 209 208 206 205 205 206 206 207 208 210 212 213 215 217 219 221 221 222 222 223 225 227 229 232 234 236 237 238 239 240 242
239 234 228 224 221 218 215 212 209 207 206 204 203 203 203 203 203 203 204 204 205 206 207 208 208 208 210 211 212 214 216 218 220 221 224 225 227 229 232 233 236 237
235 231 226 222 219 216 213 210 207 205 204 203 202 201 201 202 202 203 204 204 205 205 205 206 205 204 205 205 204 206 206 207 209 211 213 216 219 222 226 228 231 232
231 228 224 220 217 214 211 209 207 206 204 203 203 202 202 203 204 204 205 206 207 207 207 207 206 204 204 203 203 203 204 205 207 209 212 216 219 222 225 228 230 232
227 224 220 216 214 211 209 209 207 206 206 205 205 206 205 205 206 207 206 206 207 209 209 209 208 206 205 206 206 207 209 211 213 216 219 222 225 228 231 233 235 236
222 219 215 213 211 210 208 208 207 207 207 207 208 208 208 207 207 207 207 207 207 210 211 212 213 212 211 211 212 214 217 219 221 224 227 230 233 235 236 238 240 241
215 213 211 210 210 209 208 208 208 208 209 210 210 210 210 210 209 209 210 210 210 212 214 215 217 218 217 218 219 220 222 224 227 229 232 234 236 238 239 241 242 243